Wind_Speed
81 77 75 73 74 77 79 80 81 80 75 74 72 70 66 65 66 64 59 56 51 49 42 46 45 43 41 37 34 32 32 32 29 25 23 24 24 25 26 26 26 26 27 28
87 83 81 79 77 77 76 80 81 82 80 80 78 76 69 68 70 67 62 59 58 53 51 49 50 47 43 40 38 35 34 35 32 29 29 28 28 24 25 26 28 30 31 33
86 87 84 83 82 81 79 79 81 84 81 80 82 82 77 71 74 69 66 61 60 58 55 54 53 50 47 45 41 39 37 38 36 35 35 32 30 30 31 32 34 35 35 37
76 79 82 84 84 84 83 81 81 81 83 82 83 83 82 77 76 73 69 65 62 61 59 58 57 54 51 45 44 44 43 41 40 39 38 37 37 37 37 37 38 39 40 41
61 70 75 82 82 83 84 84 83 83 82 84 82 88 82 82 79 77 73 70 66 63 62 60 60 57 54 53 50 48 47 46 44 42 42 41 40 41 42 42 43 43 45 44
44 63 68 75 78 81 83 82 84 84 84 88 84 87 87 85 83 81 78 73 71 68 67 65 63 63 61 59 56 52 49 47 47 46 45 45 43 43 45 47 47 47 48 48
29 34 51 68 74 79 81 80 77 82 85 89 87 85 91 88 88 86 83 79 74 73 70 70 68 66 65 62 61 58 55 54 53 52 52 49 48 46 49 51 51 52 52 52
25 25 34 45 60 70 80 80 77 77 83 88 83 90 88 91 86 89 86 82 78 76 73 71 71 71 68 66 62 64 63 60 58 58 57 54 52 53 56 58 57 56 56 55
24 23 24 28 36 55 62 75 69 74 78 86 87 90 89 89 87 87 85 83 83 77 76 73 73 73 73 70 68 62 64 65 63 61 59 57 55 55 55 58 58 57 61 59
23 20 20 24 26 30 42 53 61 71 78 80 90 91 91 86 85 85 84 82 75 78 79 75 75 76 74 70 66 62 59 60 61 62 60 57 56 58 52 55 60 62 51 64
20 20 16 19 25 19 21 32 40 49 63 67 84 94 91 86 84 84 79 79 77 75 69 55 76 79 74 73 68 66 64 60 56 52 53 52 54 56 54 55 63 68 66 65
18 16 12 15 19 20 19 18 22 33 48 57 76 94 89 91 89 84 81 78 75 75 73 69 67 57 63 73 69 68 69 65 58 60 60 56 58 49 51 58 54 57 60 55
22 22 19 14 18 21 23 22 20 25 29 38 53 85 89 89 90 88 86 82 80 75 72 68 64 62 61 54 63 76 76 63 58 54 56 55 57 59 56 55 64 66 60 66
27 27 26 20 22 27 25 26 27 29 35 35 37 56 86 77 75 84 82 79 73 80 73 72 65 59 58 60 60 55 53 64 66 65 64 66 64 65 67 63 65 61 59 53
32 27 27 24 24 26 28 30 30 35 33 43 33 34 66 72 77 76 64 63 64 67 70 64 58 53 58 54 51 54 60 61 61 59 57 55 53 54 55 51 56 57 55 56
31 29 23 23 25 28 27 26 29 32 37 43 33 28 34 53 63 62 65 59 59 65 67 64 60 54 41 54 57 58 55 53 51 53 56 54 50 57 51 53 53 50 53 60
29 26 23 14 21 25 30 17 24 28 32 36 46 26 27 33 47 44 48 46 48 50 52 52 56 55 55 51 36 42 49 51 50 46 47 48 51 50 53 56 64 65 60 59
32 25 19 11 17 21 11 15 20 20 21 31 37 37 36 31 45 38 36 37 35 32 32 34 38 42 42 43 44 46 47 48 48 50 52 51 54 55 59 59 55 54 58 60
35 24 21 16 13 10 12 19 17 16 13 22 27 31 26 27 46 43 42 39 37 35 35 40 41 37 40 42 47 52 50 46 45 47 50 53 57 52 54 58 60 63 64 62
35 27 20 13 10 7 7 8 12 15 11 21 20 22 28 28 46 36 41 36 39 33 34 32 40 41 41 38 40 49 50 55 56 54 56 60 57 59 61 62 62 61 62 63
21 17 16 13 13 10 12 15 14 13 12 12 17 19 22 22 42 35 35 34 32 38 38 35 30 38 39 41 48 44 39 42 47 51 54 56 57 55 59 58 54 56 58 60
17 18 16 23 24 17 16 14 11 12 16 11 4 9 21 34 33 28 32 29 29 30 32 38 34 25 28 30 32 37 42 47 49 49 47 48 47 50 50 51 55 55 59 62
18 17 19 23 18 18 17 17 18 17 17 13 17 19 13 14 36 28 21 28 23 22 21 24 30 32 36 34 32 33 33 33 33 35 36 36 38 42 46 50 55 58 58 57
21 13 13 16 13 18 18 18 20 19 20 18 13 10 12 19 32 22 13 15 15 21 22 28 19 16 23 28 31 32 33 33 33 36 39 42 47 48 42 43 47 51 55 59
25 10 8 8 12 10 14 14 18 19 18 21 20 20 21 19 24 20 14 13 15 14 17 15 19 19 20 23 26 28 30 30 30 29 29 31 36 41 48 52 50 46 42 37
17 17 7 6 4 7 10 10 10 13 15 14 15 20 19 19 17 13 13 16 19 21 21 20 21 24 26 28 29 30 30 30 33 35 37 41 46 42 30 25 24 25 26 29
Wind_Direction
228 229 227 229 229 228 228 228 229 229 229 226 226 225 225 225 232 231 229 229 228 228 224 230 230 229 228 229 231 232 231 236 237 235 237 246 242 244 248 249 248 247 253 257
228 228 228 227 229 230 230 230 230 230 231 230 229 225 223 222 229 233 232 230 228 226 224 229 232 232 232 231 232 231 234 235 234 233 233 236 243 247 249 253 253 253 254 257
231 231 229 229 228 229 231 231 231 231 232 232 231 226 225 220 225 227 232 230 231 229 226 228 233 234 234 231 233 234 235 238 236 233 232 235 239 243 246 247 251 255 259 262
236 235 236 230 230 230 230 232 233 233 233 231 232 226 226 224 223 224 227 229 229 232 229 229 232 235 236 236 235 236 238 239 239 241 241 237 238 240 244 248 249 253 255 258
241 242 240 239 235 231 231 232 234 235 237 233 231 231 219 227 223 225 226 227 226 230 233 230 232 236 239 238 237 237 239 242 244 243 244 246 245 244 247 250 253 254 256 258
247 244 245 243 243 240 235 234 235 236 237 236 230 232 220 224 229 228 230 230 230 229 231 232 232 231 233 236 239 241 242 242 245 248 249 249 248 251 253 254 255 257 260 262
255 254 248 246 244 245 243 240 239 239 239 235 236 235 224 227 226 229 230 231 232 231 228 231 233 233 234 235 236 240 243 244 245 246 248 250 252 253 256 258 259 261 262 263
250 254 258 250 249 247 246 247 247 247 243 237 240 236 228 230 232 229 231 233 233 233 230 232 234 235 234 235 235 234 237 241 245 248 248 250 252 255 254 256 258 261 263 264
263 255 261 258 253 248 243 246 246 250 248 246 244 235 233 233 234 234 235 236 233 232 234 233 233 236 237 238 237 236 235 238 241 246 252 256 255 253 255 258 260 262 264 263
275 267 258 249 248 251 253 244 243 245 247 249 246 239 239 236 237 236 238 238 237 237 234 234 236 235 237 237 240 240 239 238 241 245 247 248 251 254 257 260 260 263 249 264
283 282 266 257 244 247 252 253 249 243 244 248 249 244 242 244 242 242 240 241 240 238 235 233 234 240 240 238 238 242 240 241 239 239 240 242 244 251 260 264 260 260 254 249
304 299 279 276 248 247 245 244 251 248 240 248 248 243 245 246 248 247 249 242 243 243 240 239 233 234 238 244 242 243 245 242 243 243 243 246 244 245 247 259 246 246 230 241
294 294 294 281 265 261 248 241 252 249 248 241 246 242 239 245 247 248 249 249 246 243 245 243 238 236 235 237 240 247 249 249 246 249 247 246 245 247 243 257 258 267 275 270
302 282 280 286 273 262 254 247 247 246 245 239 242 241 235 235 244 246 249 250 252 250 250 245 246 243 237 236 238 240 243 246 251 252 254 254 254 260 269 271 271 275 278 278
318 313 279 273 274 273 263 253 254 259 256 249 235 251 232 236 234 240 241 242 244 246 249 247 245 247 244 240 236 239 241 245 249 253 254 256 256 266 267 266 276 273 271 278
326 319 298 262 270 273 272 270 263 263 256 248 234 248 228 230 230 229 236 225 231 244 246 247 249 249 248 243 241 239 239 245 251 257 258 263 255 254 263 270 260 270 274 285
336 327 314 279 277 276 284 280 265 277 261 244 238 229 235 230 217 222 228 234 237 239 248 248 248 249 248 247 242 238 237 240 241 241 245 247 254 258 257 254 271 278 273 273
347 340 335 329 297 295 282 271 277 261 245 242 241 235 240 231 208 200 201 209 209 206 215 221 232 239 245 245 246 236 231 232 239 245 248 249 240 249 251 257 261 259 264 271
357 356 348 336 319 313 289 284 295 265 248 254 259 248 229 232 216 187 181 180 186 188 198 203 203 209 213 216 218 220 225 230 232 233 235 237 249 252 254 258 259 260 267 269
12 14 22 11 -0 18 317 300 295 285 274 263 264 247 249 245 198 179 178 178 175 186 186 202 199 199 207 212 223 223 219 223 225 230 238 243 247 249 252 254 259 264 267 271
29 25 46 43 23 359 338 321 316 321 320 290 271 244 219 228 182 181 185 189 183 181 186 189 195 208 213 216 214 221 225 227 230 235 242 245 246 247 249 258 264 267 268 272
19 19 15 18 11 16 24 23 34 61 22 2 319 203 177 188 166 166 170 177 191 198 201 205 216 221 216 219 218 223 228 232 236 235 238 245 251 255 260 264 268 269 271 275
21 34 41 50 58 56 57 59 57 56 53 72 114 144 142 177 183 168 173 176 179 191 194 210 210 218 227 240 245 246 246 246 245 249 256 258 260 262 265 267 270 276 282 280
14 33 46 54 82 72 59 61 62 58 61 67 99 133 134 172 163 162 167 193 197 203 212 217 221 207 205 218 227 236 243 247 251 257 261 261 262 267 269 271 275 278 278 277
14 22 25 57 60 78 80 80 63 73 69 69 82 93 106 152 175 201 224 222 212 208 207 219 227 240 243 245 246 248 248 248 249 252 259 263 267 269 273 275 278 276 279 273
13 18 8 41 62 62 81 121 59 59 80 87 100 120 116 124 135 149 165 174 188 200 209 216 222 226 232 235 236 240 246 249 251 258 264 271 273 272 272 268 268 272 274 275
Height
5664 5676 5681 5687 5692 5698 5704 5711 5716 5721 5731 5736 5742 5746 5759 5768 5768 5777 5784 5790 5796 5799 5806 5805 5808 5811 5815 5819 5823 5826 5827 5829 5832 5833 5834 5837 5837 5838 5842 5844 5844 5844 5845 5847
5644 5652 5661 5667 5674 5681 5688 5694 5701 5705 5714 5720 5727 5733 5743 5754 5757 5763 5774 5779 5785 5791 5793 5796 5799 5802 5808 5812 5815 5818 5821 5822 5825 5827 5828 5829 5831 5834 5835 5838 5840 5839 5838 5839
5624 5632 5638 5646 5655 5663 5671 5677 5682 5686 5697 5706 5710 5718 5730 5742 5743 5752 5760 5770 5773 5780 5786 5787 5790 5795 5799 5803 5808 5812 5812 5814 5818 5819 5820 5823 5825 5827 5828 5829 5830 5831 5833 5833
5611 5616 5619 5627 5638 5645 5654 5661 5666 5669 5679 5687 5691 5703 5717 5726 5732 5737 5746 5754 5761 5767 5775 5779 5781 5785 5790 5797 5801 5803 5805 5806 5809 5812 5814 5816 5817 5818 5820 5820 5821 5821 5823 5823
5600 5604 5609 5615 5620 5626 5636 5644 5649 5656 5661 5665 5679 5682 5708 5711 5721 5727 5733 5739 5747 5755 5761 5769 5774 5779 5783 5785 5789 5793 5796 5799 5801 5804 5807 5809 5810 5810 5811 5812 5813 5813 5813 5813
5590 5593 5598 5603 5606 5614 5621 5627 5633 5636 5642 5645 5667 5668 5687 5700 5709 5716 5722 5728 5735 5743 5746 5754 5760 5764 5768 5773 5778 5783 5787 5791 5793 5795 5798 5801 5802 5803 5803 5803 5803 5803 5803 5804
5584 5585 5586 5592 5595 5600 5605 5612 5618 5622 5622 5640 5643 5645 5673 5679 5688 5696 5705 5713 5720 5727 5732 5738 5744 5749 5754 5762 5768 5772 5775 5779 5782 5784 5786 5789 5792 5794 5794 5793 5793 5793 5793 5793
5579 5582 5578 5580 5581 5588 5597 5599 5604 5610 5613 5625 5619 5627 5659 5663 5669 5679 5691 5698 5706 5712 5719 5727 5732 5737 5741 5748 5753 5758 5762 5766 5770 5772 5776 5779 5782 5782 5781 5780 5781 5782 5781 5781
5573 5575 5572 5570 5571 5574 5579 5586 5596 5588 5600 5602 5602 5632 5638 5643 5657 5665 5673 5680 5688 5698 5703 5711 5717 5722 5728 5735 5740 5744 5750 5754 5757 5762 5766 5768 5767 5768 5768 5768 5768 5770 5769 5768
5567 5570 5567 5567 5565 5567 5566 5567 5576 5577 5585 5587 5595 5614 5618 5634 5636 5646 5655 5661 5671 5679 5688 5694 5701 5708 5714 5721 5728 5734 5738 5741 5745 5750 5754 5755 5756 5757 5758 5757 5757 5757 5755 5756
5562 5563 5564 5561 5561 5560 5560 5559 5562 5564 5568 5572 5582 5596 5614 5617 5623 5628 5639 5645 5655 5664 5675 5680 5687 5693 5699 5707 5713 5718 5723 5727 5733 5736 5740 5744 5745 5747 5746 5746 5744 5744 5744 5742
5559 5558 5556 5555 5553 5554 5553 5554 5554 5551 5559 5558 5564 5575 5598 5605 5609 5615 5621 5631 5641 5649 5657 5665 5675 5679 5685 5692 5698 5703 5707 5712 5718 5723 5727 5728 5732 5735 5732 5733 5731 5728 5725 5725
5555 5553 5552 5552 5551 5548 5547 5548 5548 5547 5546 5544 5546 5560 5586 5590 5594 5600 5608 5612 5623 5632 5641 5649 5658 5667 5674 5679 5684 5690 5694 5696 5701 5707 5711 5714 5716 5716 5719 5715 5717 5715 5715 5715
5547 5546 5545 5545 5544 5542 5542 5541 5541 5538 5536 5537 5536 5542 5564 5571 5575 5584 5592 5599 5605 5618 5630 5638 5646 5653 5660 5666 5672 5677 5682 5686 5689 5691 5694 5697 5699 5702 5702 5703 5703 5702 5703 5703
5540 5537 5534 5535 5534 5532 5532 5534 5535 5529 5531 5524 5532 5528 5551 5557 5562 5568 5573 5586 5593 5602 5613 5623 5633 5640 5648 5654 5661 5666 5671 5674 5677 5679 5681 5687 5689 5690 5692 5690 5692 5691 5692 5693
5536 5530 5526 5526 5526 5523 5523 5524 5523 5522 5520 5517 5524 5523 5542 5536 5543 5551 5557 5571 5578 5588 5597 5609 5619 5628 5636 5642 5648 5655 5660 5663 5666 5670 5672 5676 5679 5681 5681 5682 5681 5683 5682 5684
5532 5525 5520 5519 5518 5515 5514 5515 5514 5511 5509 5512 5511 5523 5520 5524 5529 5536 5544 5552 5563 5574 5584 5593 5604 5613 5621 5630 5637 5642 5647 5652 5656 5660 5661 5663 5666 5668 5669 5672 5673 5672 5672 5672
5529 5521 5517 5516 5513 5510 5509 5508 5506 5503 5503 5505 5507 5512 5513 5516 5521 5529 5538 5547 5555 5562 5573 5581 5589 5599 5607 5616 5625 5631 5638 5642 5645 5648 5650 5652 5654 5657 5658 5659 5660 5658 5659 5658
5527 5520 5516 5512 5510 5509 5508 5504 5503 5501 5504 5503 5503 5504 5508 5512 5514 5524 5534 5539 5548 5557 5565 5572 5580 5589 5595 5604 5612 5618 5623 5627 5632 5638 5640 5640 5643 5644 5645 5646 5646 5646 5646 5644
5531 5524 5519 5514 5511 5508 5506 5505 5504 5502 5501 5500 5499 5501 5502 5505 5512 5524 5531 5538 5547 5554 5562 5570 5577 5582 5588 5597 5603 5608 5613 5617 5621 5624 5626 5628 5630 5632 5633 5633 5634 5634 5632 5630
5539 5532 5525 5520 5516 5513 5509 5505 5502 5498 5498 5493 5492 5492 5496 5503 5513 5520 5528 5536 5543 5550 5558 5565 5571 5576 5581 5587 5593 5598 5603 5607 5610 5613 5616 5617 5618 5619 5620 5621 5621 5621 5620 5618
5544 5538 5531 5525 5519 5515 5510 5507 5504 5501 5498 5494 5489 5488 5497 5504 5512 5524 5531 5538 5546 5552 5556 5560 5565 5569 5575 5581 5586 5590 5594 5597 5600 5603 5605 5607 5607 5608 5610 5611 5611 5610 5608 5606
5549 5545 5538 5532 5527 5522 5518 5515 5511 5508 5504 5501 5498 5500 5504 5511 5519 5526 5533 5539 5545 5550 5555 5559 5564 5568 5572 5576 5579 5583 5586 5590 5593 5594 5596 5596 5598 5599 5600 5601 5601 5600 5598 5595
5553 5549 5544 5537 5534 5530 5527 5523 5519 5516 5514 5512 5509 5509 5511 5517 5523 5531 5536 5542 5546 5550 5553 5556 5560 5564 5568 5572 5575 5577 5580 5583 5585 5587 5588 5589 5591 5592 5592 5591 5590 5588 5585 5581
5557 5551 5549 5544 5540 5536 5534 5531 5528 5525 5523 5522 5521 5522 5523 5526 5531 5535 5540 5542 5545 5548 5552 5555 5557 5561 5564 5566 5569 5571 5573 5575 5578 5580 5582 5583 5584 5583 5582 5579 5577 5575 5570 5568
5560 5555 5551 5548 5545 5542 5538 5536 5535 5533 5531 5530 5529 5530 5532 5534 5535 5537 5539 5541 5544 5546 5549 5552 5554 5556 5558 5559 5561 5563 5565 5568 5570 5572 5572 5573 5573 5572 5569 5567 5567 5566 5564 5562